• In Belarus
  • List of Countries
  • For 7 days
  • Water Temperature
  • Satellite Maps
  • Weather Map
  • Weather Widgets
  • user-avatar
    Login

    Hourly Weather Ras al-Chajma

    Today, 25 November, Saturday

    Time Temperature Precipitation Wind Pressure Humidity
    00:00 +25°C° 0 mm 4 mps 760 mmHg 56%
    01:00 +25°C° 0 mm 4 mps 760 mmHg 57%
    02:00 +25°C° 0 mm 4 mps 760 mmHg 57%
    03:00 +23°C° 0 mm 5 mps 760 mmHg 57%
    04:00 +23°C° 0 mm 5 mps 760 mmHg 58%
    05:00 +23°C° 0 mm 5 mps 760 mmHg 56%
    06:00 +23°C° 0 mm 5 mps 760 mmHg 55%
    07:00 +23°C° 0 mm 6 mps 760 mmHg 54%
    08:00 +26°C° 0 mm 6 mps 760 mmHg 47%
    09:00 +27°C° 0 mm 6 mps 761 mmHg 41%
    10:00 +29°C° 0 mm 7 mps 761 mmHg 34%
    11:00 +29°C° 0 mm 7 mps 761 mmHg 35%
    12:00 +29°C° 0 mm 7 mps 761 mmHg 36%
    13:00 +29°C° 0 mm 7 mps 760 mmHg 37%
    14:00 +28°C° 0 mm 6 mps 760 mmHg 38%
    15:00 +28°C° 0 mm 6 mps 760 mmHg 40%
    16:00 +27°C° 0 mm 6 mps 760 mmHg 42%
    17:00 +26°C° 0 mm 5 mps 760 mmHg 45%
    18:00 +25°C° 0 mm 5 mps 761 mmHg 49%
    19:00 +25°C° 0 mm 4 mps 761 mmHg 53%
    20:00 +23°C° 0 mm 4 mps 761 mmHg 55%
    21:00 +23°C° 0 mm 4 mps 761 mmHg 57%
    22:00 +22°C° 0 mm 4 mps 761 mmHg 60%
    23:00 +22°C° 0 mm 4 mps 761 mmHg 62%

    Tomorrow, 26 November, Sunday

    Time Temperature Precipitation Wind Pressure Humidity
    00:00 +22°C° 0 mm 3 mps 761 mmHg 64%
    01:00 +21°C° 0 mm 3 mps 761 mmHg 66%
    02:00 +21°C° 0 mm 3 mps 761 mmHg 67%
    03:00 +21°C° 0 mm 3 mps 761 mmHg 69%
    04:00 +21°C° 0 mm 3 mps 761 mmHg 70%
    05:00 +21°C° 0 mm 3 mps 761 mmHg 71%
    06:00 +21°C° 0 mm 2 mps 761 mmHg 72%
    07:00 +21°C° 0 mm 2 mps 762 mmHg 72%
    08:00 +23°C° 0 mm 2 mps 762 mmHg 63%
    09:00 +25°C° 0 mm 2 mps 762 mmHg 54%
    10:00 +27°C° 0 mm 2 mps 763 mmHg 45%
    11:00 +27°C° 0 mm 2 mps 762 mmHg 41%
    12:00 +28°C° 0 mm 2 mps 761 mmHg 37%
    13:00 +29°C° 0 mm 1 mps 761 mmHg 34%
    14:00 +29°C° 0 mm 2 mps 761 mmHg 34%
    15:00 +29°C° 0 mm 2 mps 760 mmHg 34%
    16:00 +29°C° 0 mm 2 mps 760 mmHg 34%
    17:00 +27°C° 0 mm 2 mps 760 mmHg 39%
    18:00 +26°C° 0 mm 2 mps 760 mmHg 44%
    19:00 +25°C° 0 mm 2 mps 760 mmHg 49%
    20:00 +24°C° 0 mm 1 mps 761 mmHg 52%
    21:00 +24°C° 0 mm 1 mps 761 mmHg 54%
    22:00 +21°C° 0 mm 0 mps 761 mmHg 57%
    23:00 +21°C° 0 mm 0 mps 761 mmHg 59%

    Day after tomorrow, 27 November, Monday

    Time Temperature Precipitation Wind Pressure Humidity
    00:00 +20°C° 0 mm 0 mps 760 mmHg 61%
    01:00 +20°C° 0 mm 0 mps 760 mmHg 63%
    02:00 +20°C° 0 mm 0 mps 760 mmHg 66%
    03:00 +21°C° 0 mm 1 mps 760 mmHg 68%
    04:00 +21°C° 0 mm 1 mps 759 mmHg 70%
    05:00 +21°C° 0 mm 1 mps 760 mmHg 71%
    06:00 +21°C° 0 mm 1 mps 760 mmHg 71%
    07:00 +20°C° 0 mm 1 mps 760 mmHg 72%
    08:00 +21°C° 0 mm 0 mps 761 mmHg 62%
    09:00 +23°C° 0 mm 0 mps 761 mmHg 52%
    10:00 +25°C° 0 mm 0 mps 761 mmHg 42%
    11:00 +28°C° 0 mm 1 mps 761 mmHg 38%
    12:00 +29°C° 0 mm 1 mps 760 mmHg 34%
    13:00 +30°C° 0 mm 1 mps 760 mmHg 30%
    14:00 +29°C° 0 mm 2 mps 759 mmHg 33%
    15:00 +29°C° 0 mm 2 mps 759 mmHg 35%
    16:00 +29°C° 0 mm 3 mps 758 mmHg 38%
    17:00 +28°C° 0 mm 2 mps 758 mmHg 42%
    18:00 +26°C° 0 mm 2 mps 759 mmHg 47%
    19:00 +25°C° 0 mm 1 mps 759 mmHg 51%
    20:00 +24°C° 0 mm 1 mps 759 mmHg 53%
    21:00 +24°C° 0 mm 1 mps 759 mmHg 54%
    22:00 +23°C° 0 mm 1 mps 759 mmHg 56%
    23:00 +23°C° 0 mm 1 mps 759 mmHg 57%

    28 November, Tuesday

    Time Temperature Precipitation Wind Pressure Humidity
    00:00 +23°C° 0 mm 1 mps 759 mmHg 57%
    01:00 +22°C° 0 mm 1 mps 758 mmHg 58%
    02:00 +21°C° 0 mm 2 mps 758 mmHg 59%
    03:00 +21°C° 0 mm 2 mps 758 mmHg 60%
    04:00 +21°C° 0 mm 2 mps 758 mmHg 61%
    05:00 +21°C° 0 mm 2 mps 758 mmHg 59%
    06:00 +21°C° 0 mm 2 mps 758 mmHg 58%
    07:00 +21°C° 0 mm 3 mps 758 mmHg 57%
    08:00 +24°C° 0 mm 3 mps 759 mmHg 51%
    09:00 +26°C° 0 mm 3 mps 759 mmHg 45%
    10:00 +28°C° 0 mm 3 mps 759 mmHg 38%
    11:00 +29°C° 0 mm 3 mps 759 mmHg 40%
    12:00 +30°C° 0 mm 4 mps 758 mmHg 41%
    13:00 +32°C° 0 mm 5 mps 757 mmHg 42%
    14:00 +32°C° 0 mm 5 mps 757 mmHg 45%
    15:00 +30°C° 0 mm 5 mps 757 mmHg 48%
    16:00 +30°C° 0 mm 5 mps 756 mmHg 51%
    17:00 +29°C° 0 mm 4 mps 757 mmHg 55%
    18:00 +28°C° 0 mm 4 mps 757 mmHg 59%
    19:00 +27°C° 0 mm 3 mps 757 mmHg 63%
    20:00 +26°C° 0 mm 3 mps 757 mmHg 65%
    21:00 +26°C° 0 mm 3 mps 758 mmHg 67%
    22:00 +25°C° 0 mm 3 mps 758 mmHg 69%
    23:00 +25°C° 0 mm 3 mps 758 mmHg 70%

    29 November, Wednesday

    Time Temperature Precipitation Wind Pressure Humidity
    00:00 +25°C° 0 mm 3 mps 758 mmHg 72%
    01:00 +25°C° 0 mm 3 mps 757 mmHg 73%
    02:00 +24°C° 0 mm 3 mps 757 mmHg 74%
    03:00 +24°C° 0 mm 3 mps 757 mmHg 74%
    04:00 +24°C° 0 mm 3 mps 758 mmHg 74%
    05:00 +24°C° 0 mm 3 mps 758 mmHg 74%
    06:00 +24°C° 0 mm 3 mps 758 mmHg 73%
    07:00 +24°C° 0 mm 3 mps 759 mmHg 72%
    08:00 +25°C° 0 mm 2 mps 759 mmHg 63%
    09:00 +27°C° 0 mm 2 mps 759 mmHg 53%
    10:00 +29°C° 0 mm 2 mps 760 mmHg 43%
    11:00 +30°C° 0 mm 2 mps 759 mmHg 40%
    12:00 +30°C° 0 mm 2 mps 759 mmHg 36%
    13:00 +31°C° 0 mm 2 mps 758 mmHg 33%
    14:00 +31°C° 0 mm 2 mps 758 mmHg 34%
    15:00 +30°C° 0 mm 3 mps 758 mmHg 35%
    16:00 +30°C° 0 mm 3 mps 757 mmHg 37%
    17:00 +28°C° 0 mm 2 mps 758 mmHg 43%
    18:00 +27°C° 0 mm 2 mps 758 mmHg 49%
    19:00 +25°C° 0 mm 1 mps 758 mmHg 55%
    20:00 +25°C° 0 mm 1 mps 759 mmHg 57%
    21:00 +24°C° 0 mm 1 mps 759 mmHg 59%
    22:00 +24°C° 0 mm 1 mps 759 mmHg 61%
    23:00 +23°C° 0 mm 1 mps 759 mmHg 62%

    30 November, Thursday

    Time Temperature Precipitation Wind Pressure Humidity
    00:00 +23°C° 0 mm 1 mps 758 mmHg 64%
    01:00 +22°C° 0 mm 1 mps 758 mmHg 65%
    02:00 +22°C° 0 mm 1 mps 758 mmHg 67%
    03:00 +22°C° 0 mm 1 mps 758 mmHg 68%
    04:00 +21°C° 0 mm 1 mps 758 mmHg 70%
    05:00 +21°C° 0 mm 1 mps 758 mmHg 71%
    06:00 +21°C° 0 mm 1 mps 759 mmHg 72%
    07:00 +21°C° 0 mm 1 mps 759 mmHg 73%
    08:00 +23°C° 0 mm 1 mps 759 mmHg 62%
    09:00 +25°C° 0 mm 1 mps 759 mmHg 51%
    10:00 +26°C° 0 mm 0 mps 760 mmHg 40%
    11:00 +29°C° 0 mm 1 mps 759 mmHg 37%
    12:00 +29°C° 0 mm 1 mps 759 mmHg 34%
    13:00 +30°C° 0 mm 2 mps 758 mmHg 31%
    14:00 +30°C° 0 mm 2 mps 758 mmHg 33%
    15:00 +30°C° 0 mm 2 mps 757 mmHg 34%
    16:00 +30°C° 0 mm 2 mps 757 mmHg 36%
    17:00 +28°C° 0 mm 2 mps 757 mmHg 40%
    18:00 +27°C° 0 mm 2 mps 758 mmHg 45%
    19:00 +25°C° 0 mm 1 mps 758 mmHg 49%
    20:00 +25°C° 0 mm 1 mps 758 mmHg 52%
    21:00 +24°C° 0 mm 1 mps 758 mmHg 54%
    22:00 +24°C° 0 mm 1 mps 758 mmHg 57%
    23:00 +23°C° 0 mm 1 mps 758 mmHg 56%
    Show more